Temperature
18 19 19 20 22 22 22 23 23 23 23 22 21 22 23 23 23 22 21 21 20 19 18 17 15 14 13 13 12 12 12 11 11 10 10 10 10 9 9 9 9 9 9 9 9 9 9 9 10
18 19 19 21 22 22 22 23 23 23 22 21 21 21 22 23 21 21 21 21 20 19 18 17 16 14 13 13 12 12 12 11 11 10 10 10 10 9 9 9 9 9 9 9 9 9 9 10 10
18 19 20 23 22 22 22 23 23 22 20 20 21 21 22 23 21 20 21 20 20 19 18 17 16 15 14 13 12 12 11 11 11 10 10 10 9 9 9 9 9 9 9 9 9 9 9 9 10
18 19 21 23 22 22 22 23 22 22 21 20 21 22 21 21 21 21 21 20 20 19 18 17 16 15 14 13 12 12 11 11 10 10 10 9 9 9 9 9 9 9 9 9 9 9 9 9 9
19 21 22 22 22 22 22 22 21 22 22 21 21 23 22 21 21 21 20 20 19 19 18 17 16 15 14 13 12 11 11 11 10 10 10 9 9 9 9 9 9 9 9 9 9 9 9 9 9
20 22 22 21 22 22 22 21 21 22 22 21 21 22 22 21 21 20 20 20 19 19 18 17 16 15 14 13 12 11 11 11 10 10 10 9 9 9 9 9 9 9 9 9 9 9 9 9 9
21 22 21 21 21 22 22 21 21 22 22 22 21 22 22 20 21 20 20 19 19 18 17 16 15 14 13 12 12 11 11 10 10 10 9 9 9 9 9 9 9 9 9 9 9 9 9 9 9
20 22 21 21 21 21 21 20 20 21 22 20 20 22 22 20 20 20 19 19 18 18 17 16 15 14 13 12 11 11 11 10 10 10 9 9 9 9 8 9 9 9 9 9 9 9 9 9 9
19 21 21 21 21 21 21 21 20 19 20 20 19 20 20 20 19 19 19 19 18 18 17 16 14 13 12 12 11 11 10 10 10 9 9 9 9 8 8 8 8 8 8 8 9 9 9 9 9
20 20 21 21 21 21 21 20 20 20 20 20 20 19 19 19 19 18 18 18 18 18 17 16 14 13 12 11 11 11 10 10 10 9 9 9 9 8 8 8 8 8 8 8 8 8 9 8 8
20 20 21 20 19 19 19 19 19 19 21 21 20 19 17 18 18 18 17 17 17 17 17 16 15 13 12 12 11 11 10 10 10 9 9 9 8 8 8 8 8 8 8 8 8 8 8 8 8
20 20 19 19 17 17 18 19 19 18 19 18 17 17 17 17 17 17 17 17 16 16 16 16 15 14 13 11 11 11 10 10 10 9 9 9 9 9 8 8 8 8 8 8 8 8 7 8 8
19 19 18 17 16 16 17 18 18 18 17 16 16 16 16 16 16 17 17 16 16 16 16 16 15 14 13 12 11 11 10 10 10 9 9 9 9 9 8 8 8 8 8 8 8 8 7 8 8
18 18 18 17 17 16 17 18 17 18 16 16 15 15 15 16 16 16 17 17 17 17 16 16 15 14 13 13 12 11 10 10 10 9 9 9 9 9 8 8 8 8 8 8 7 7 7 7 7
16 18 19 18 17 17 17 19 19 17 16 17 16 15 15 15 16 16 17 17 17 17 16 16 15 14 14 13 12 11 10 10 10 10 9 9 9 8 8 8 8 8 8 7 7 7 7 7 7
18 18 19 19 18 17 18 20 19 16 16 17 16 15 15 14 15 16 17 17 17 17 17 16 15 15 14 13 12 11 10 10 10 9 9 9 9 8 8 8 8 7 7 7 7 7 7 7 7
19 19 19 19 18 18 19 19 19 16 16 17 16 15 15 14 15 16 17 17 17 17 17 16 15 14 14 13 12 11 10 10 10 9 9 9 9 8 8 8 7 7 7 7 7 7 6 6 6
19 19 19 19 19 18 18 19 19 17 16 17 16 15 14 14 14 16 16 17 17 17 16 16 15 14 13 12 11 11 10 10 10 9 9 9 9 8 8 8 7 7 7 7 7 7 6 6 6
18 18 18 19 17 17 18 18 18 17 17 17 16 15 15 13 13 15 16 16 16 16 16 15 15 14 13 13 12 11 11 10 10 10 9 9 9 8 8 8 8 7 7 7 7 6 6 6 6
17 17 18 18 16 16 17 18 18 17 17 16 16 15 14 14 13 14 15 15 16 16 15 15 14 14 13 12 12 11 11 10 10 10 10 9 9 9 8 8 8 7 7 7 7 7 6 6 5
17 17 18 18 17 16 16 18 18 17 16 15 15 14 14 13 13 14 14 15 15 15 14 14 14 13 13 12 12 12 11 11 11 10 10 10 9 9 9 8 8 8 7 7 7 7 6 6 5
17 17 16 16 17 19 17 19 19 18 17 17 16 15 14 13 13 13 14 14 14 14 14 13 13 13 12 12 12 11 11 11 10 10 10 10 9 9 9 8 8 8 7 7 7 7 6 6 5
17 15 15 15 16 17 17 18 20 17 17 17 17 15 13 12 12 13 13 13 13 13 13 13 12 12 12 12 11 11 11 10 10 10 10 9 9 9 9 8 8 8 7 7 7 7 6 5 5
15 15 14 15 16 17 18 18 19 18 18 18 17 15 13 12 12 12 13 13 13 12 12 12 12 12 11 11 11 10 10 10 9 9 9 9 8 8 8 8 7 7 7 7 7 6 6 5 5
15 17 18 18 18 19 16 16 19 18 18 18 17 15 13 12 12 11 12 12 12 12 12 11 11 11 11 10 10 10 9 9 8 8 8 8 7 7 7 7 7 6 6 6 6 6 6 5 5
16 17 18 18 19 19 15 17 19 16 15 15 15 14 13 12 11 11 11 11 11 11 11 11 11 10 10 10 9 9 8 8 7 7 7 7 6 6 6 6 6 6 6 6 5 5 5 5 4
16 17 17 18 16 17 18 18 18 15 14 14 14 13 12 12 11 11 11 11 11 11 11 10 10 10 9 9 8 8 8 7 7 6 6 6 6 6 6 6 5 5 5 5 5 4 4 4 3
15 16 16 17 17 17 18 18 19 17 16 15 14 13 12 11 10 10 10 10 10 10 10 10 9 9 9 8 8 7 7 6 6 6 6 5 5 5 5 5 5 5 5 4 4 4 3 3 2
14 15 16 17 17 17 18 19 18 17 16 15 15 13 12 11 10 10 10 10 10 10 9 9 9 8 8 7 7 6 6 6 5 5 5 5 5 4 4 4 4 4 4 3 3 3 2 1 1
16 16 16 17 16 16 17 18 16 16 15 15 14 12 11 10 10 9 9 9 9 9 9 8 8 7 7 6 6 6 5 5 5 5 4 4 4 4 4 3 3 3 3 2 2 1 1 0 0
Wind_Speed
2 2 2 3 4 5 5 2 2 2 2 1 1 3 3 4 5 4 3 9 9 16 24 25 24 23 21 18 17 15 14 13 12 11 11 10 10 9 9 10 10 10 10 10 10 11 11 12 12
2 2 3 4 6 6 4 3 2 4 3 1 3 4 4 3 2 2 3 9 11 18 23 24 25 23 21 19 18 16 15 13 12 11 11 10 10 9 9 9 9 9 9 9 9 10 10 10 11
2 3 4 5 6 6 3 1 3 5 3 3 3 4 4 2 1 1 3 11 13 18 22 23 26 24 22 20 18 17 15 14 13 12 11 10 9 9 8 8 8 8 8 8 8 8 9 9 9
3 3 4 6 6 4 3 3 5 5 1 3 4 4 3 1 0 3 4 12 14 18 22 23 26 24 22 21 19 17 16 15 13 12 11 10 9 9 8 7 7 7 7 7 7 7 8 8 8
3 4 6 7 6 3 3 5 4 4 2 2 4 5 4 3 2 2 5 12 14 17 21 22 26 24 23 21 20 18 17 15 14 13 11 10 9 9 8 7 7 6 6 6 6 6 6 6 6
3 4 6 7 6 4 5 4 3 4 3 2 4 6 5 4 2 2 6 11 13 16 19 21 25 24 23 21 20 19 17 16 14 13 12 11 10 9 8 7 6 5 5 5 5 5 5 5 5
2 4 6 7 7 7 5 2 4 4 5 5 3 6 5 4 3 3 6 10 12 16 18 18 22 22 22 21 20 20 18 16 15 14 13 11 10 10 9 8 7 5 5 4 3 3 3 3 3
1 3 6 7 8 8 3 2 3 6 8 3 4 7 7 3 4 4 6 8 11 14 17 18 20 21 20 20 21 20 19 17 15 14 13 12 10 10 9 9 8 6 5 4 3 2 2 1 1
2 6 8 8 7 7 3 5 5 5 8 6 7 10 4 3 4 6 7 9 11 13 16 17 18 19 19 18 19 19 19 18 16 14 14 12 11 10 9 9 8 7 6 5 5 4 3 3 2
3 7 9 6 6 8 7 8 8 7 10 11 10 9 3 3 5 8 10 12 15 17 18 17 17 18 18 16 16 16 16 16 15 13 14 12 10 9 7 8 8 8 7 7 6 6 5 6 5
4 7 6 6 7 7 8 9 6 7 11 10 11 12 7 7 9 11 12 12 14 15 16 17 16 17 16 14 14 13 13 14 14 14 12 11 9 8 8 8 8 9 8 8 6 7 7 7 6
5 7 7 6 3 5 8 7 7 10 10 9 10 11 9 9 10 11 12 11 11 13 16 16 17 16 16 15 14 13 12 12 12 13 13 11 9 9 8 8 8 8 8 8 8 8 8 9 9
7 6 5 6 7 8 10 12 10 9 8 8 6 6 6 7 9 9 9 10 11 13 14 16 17 17 16 15 13 13 13 12 13 12 13 13 11 10 10 10 10 10 10 10 10 10 11 11 11
3 6 10 10 10 5 6 6 4 4 4 5 4 5 5 6 6 6 6 8 10 12 13 15 17 18 17 14 13 13 13 13 13 13 14 15 14 12 11 11 11 12 12 12 12 13 12 12 12
3 7 9 4 2 2 4 6 4 2 5 4 5 6 7 7 7 5 3 5 7 9 11 13 15 16 17 16 15 13 13 13 13 13 15 16 16 15 13 12 12 13 14 14 13 14 13 12 12
3 5 4 2 1 1 4 4 3 3 4 4 5 7 8 9 10 8 4 0 3 7 9 11 11 14 15 14 14 12 12 12 12 13 14 16 17 17 15 13 13 15 14 13 12 11 11 11 12
5 4 4 2 1 2 4 6 1 3 2 3 6 8 9 11 13 12 9 5 4 5 7 9 10 11 12 13 12 11 11 11 12 12 13 15 17 17 16 14 15 15 13 12 11 11 12 13 13
4 5 5 5 1 4 7 8 6 2 1 4 6 8 10 12 13 12 11 9 8 6 6 7 8 9 9 8 8 7 8 9 11 11 13 15 15 17 17 15 16 15 11 11 12 14 13 13 13
5 7 9 8 3 5 7 8 5 0 4 6 7 9 10 11 11 12 12 11 10 9 7 6 6 7 7 6 6 6 7 7 8 11 14 15 16 16 16 14 15 13 12 14 15 14 14 13 11
7 9 10 6 1 4 7 7 2 4 5 5 7 8 9 11 12 12 12 12 12 10 8 6 5 5 6 5 5 4 5 6 7 9 12 14 15 16 15 15 13 13 12 14 15 14 12 11 10
8 10 9 6 3 3 5 4 6 6 6 6 6 7 9 9 11 11 12 12 12 11 8 6 5 4 4 5 4 3 3 4 5 7 7 11 14 15 16 16 15 13 13 13 14 14 15 13 11
8 7 7 5 5 3 3 3 8 11 10 9 8 8 8 9 10 10 11 12 11 10 8 8 6 5 4 4 4 5 4 5 5 5 6 7 10 12 14 15 16 14 13 14 14 14 13 14 13
3 3 3 3 5 6 5 6 7 12 14 13 11 9 8 8 9 10 10 10 9 9 8 8 7 6 4 3 3 4 5 5 5 6 7 7 7 9 11 13 13 13 12 15 15 15 15 13 15
6 5 3 2 3 5 4 7 5 11 17 17 13 11 9 9 9 9 9 9 9 8 8 7 8 7 4 2 1 2 4 5 6 7 7 6 6 6 8 10 11 12 12 13 14 15 16 16 17
6 5 4 4 5 4 3 5 5 5 8 14 15 13 11 10 9 9 9 8 8 8 7 7 7 6 5 3 2 2 3 5 6 7 7 7 6 6 8 7 9 10 11 13 13 14 15 17 18
8 7 6 4 3 1 4 6 1 4 3 6 10 12 11 10 9 8 8 7 7 7 6 6 6 5 5 4 3 3 3 3 4 6 6 7 7 8 9 9 10 12 13 13 13 13 15 15 17
7 6 2 2 2 5 5 4 4 4 5 8 11 12 11 10 9 8 8 7 6 5 5 5 4 4 4 4 4 4 4 4 5 7 7 7 8 8 10 11 12 12 13 13 14 13 16 16 16
1 5 5 5 4 5 5 5 4 8 9 10 13 13 11 10 9 8 7 6 5 4 4 4 4 4 4 4 4 4 5 6 7 8 9 10 10 10 12 12 13 14 14 14 14 15 15 17 17
7 5 5 4 3 4 5 3 1 6 8 10 12 12 11 10 10 8 6 5 4 4 3 3 3 3 4 4 5 6 6 7 8 8 10 10 11 12 13 13 14 15 16 16 15 16 17 18 18
7 7 9 6 6 5 5 4 3 4 6 8 10 9 9 9 8 7 6 5 3 3 2 3 3 3 4 5 6 7 7 8 9 10 11 12 13 13 14 14 15 16 16 16 17 18 18 18 19
Wind_Direction
195 222 221 216 214 227 231 208 256 316 296 310 237 233 291 331 345 354 65 159 155 161 167 172 172 170 170 169 166 161 159 155 151 144 136 130 125 117 109 100 94 89 84 79 77 76 75 74 74
196 203 208 215 228 222 204 204 265 326 332 297 222 226 246 274 282 323 126 161 165 165 168 173 172 172 172 171 168 166 164 161 156 150 144 139 133 125 116 106 99 94 88 83 80 79 77 75 75
178 232 209 203 228 234 198 157 329 331 293 240 221 229 269 305 189 144 95 161 167 168 171 172 172 174 175 174 172 171 169 166 163 157 152 147 141 133 125 116 108 101 95 89 84 81 80 78 76
204 197 204 222 219 230 266 311 332 316 241 218 243 237 230 234 67 71 120 164 170 171 173 173 174 176 177 178 176 174 173 172 169 165 161 157 152 144 134 128 120 112 104 97 89 84 82 81 79
225 208 205 220 230 245 270 311 308 300 280 202 240 266 267 141 110 96 151 170 174 172 175 174 177 179 180 180 179 178 178 176 175 173 170 168 162 155 147 141 133 124 115 106 96 87 83 82 81
198 214 224 232 239 257 273 278 273 277 272 241 246 270 274 125 146 138 164 176 179 175 176 176 180 181 183 183 183 181 181 181 181 179 178 177 172 165 160 156 150 144 133 119 106 96 86 81 80
227 227 245 255 264 270 283 250 258 281 276 272 254 270 270 147 97 133 164 174 179 179 180 179 182 185 186 187 186 184 185 186 186 186 184 184 180 177 173 170 168 165 156 143 129 112 98 87 80
286 242 247 255 267 278 270 232 259 280 291 293 237 262 279 97 102 137 156 172 180 184 186 185 185 187 189 190 190 188 187 190 190 190 188 186 188 188 185 184 182 183 182 177 173 168 158 125 94
234 247 255 261 268 279 252 264 277 268 271 257 243 266 322 99 140 160 169 180 187 191 193 192 190 189 191 192 190 190 190 192 193 194 189 189 198 198 194 194 187 199 203 204 208 213 214 216 208
224 252 262 265 263 282 284 279 291 273 267 267 263 256 229 216 210 210 206 198 195 196 196 195 195 191 192 192 191 194 194 194 197 200 196 198 202 202 196 174 194 213 220 224 227 229 230 235 234
235 258 273 263 262 275 281 283 273 270 278 288 295 299 286 252 241 236 230 218 207 199 195 199 198 195 193 192 194 194 194 196 200 201 198 193 196 199 205 206 205 217 223 229 221 231 237 244 251
251 261 266 273 255 262 276 283 275 259 277 318 309 301 291 270 258 247 241 229 212 201 199 199 199 198 199 197 197 197 197 197 197 197 195 193 198 207 210 217 222 225 227 234 238 245 247 251 254
253 273 267 264 265 269 272 269 274 271 298 317 317 311 303 291 281 264 251 235 216 206 200 200 200 201 201 202 202 203 203 203 203 200 201 205 209 216 219 225 227 232 236 238 244 248 252 253 255
276 275 281 283 275 254 256 266 243 267 333 330 347 352 349 337 318 293 250 229 214 207 201 198 201 203 203 205 207 208 210 209 210 207 210 213 218 222 224 231 233 236 237 242 246 251 255 256 256
273 285 285 253 253 225 261 263 210 356 332 350 18 26 24 17 7 345 298 237 215 204 199 196 200 203 206 210 213 215 215 215 216 217 219 219 223 227 228 235 237 239 240 243 247 253 256 258 258
251 262 258 160 300 221 270 274 122 10 350 17 35 40 39 37 32 25 20 98 184 184 187 190 193 203 208 211 215 219 222 222 224 225 226 226 229 231 234 238 242 244 243 242 244 249 251 254 257
235 253 270 269 159 294 275 279 338 350 351 58 60 54 51 47 39 36 43 71 110 147 165 178 189 199 205 211 216 221 224 228 231 231 232 233 234 235 237 242 247 248 244 243 246 249 251 258 260
251 262 273 282 292 294 278 278 304 345 107 103 86 73 61 51 42 42 53 70 87 107 134 158 178 192 196 203 212 219 226 231 234 235 237 238 237 237 239 244 249 249 244 245 247 250 252 256 265
266 266 275 283 306 288 278 286 294 219 143 120 102 86 74 66 61 59 63 73 83 90 105 128 155 174 182 187 198 211 225 231 235 239 242 242 242 242 241 245 250 247 244 248 251 253 256 256 259
238 259 271 277 231 277 291 285 245 160 146 129 114 98 89 84 74 66 68 71 75 80 88 102 127 156 176 186 195 213 231 242 246 245 247 246 246 246 244 245 249 249 249 252 254 253 254 257 247
232 246 265 278 288 229 288 230 173 156 146 134 120 109 98 89 85 78 73 72 74 73 75 86 103 132 166 181 187 195 223 244 245 247 250 250 249 248 246 248 251 252 250 252 253 250 247 252 250
251 240 243 253 277 264 279 243 183 175 171 162 146 128 112 103 96 88 84 77 74 73 77 84 93 107 135 171 197 214 234 252 267 274 269 269 260 256 253 253 253 255 253 253 254 251 249 249 253
221 114 184 234 255 270 228 242 190 180 188 181 164 145 129 118 109 100 92 88 83 80 81 84 90 92 107 153 201 235 257 275 288 291 285 284 274 263 259 257 256 256 255 255 256 255 251 246 248
140 129 123 179 226 247 212 224 210 191 200 185 173 160 148 136 124 114 108 103 94 88 84 86 88 85 87 104 160 254 283 294 300 301 301 298 290 278 268 261 259 258 257 258 257 257 254 251 250
184 216 239 224 218 231 150 235 247 172 191 190 179 169 160 151 143 134 128 119 107 95 87 85 83 76 69 65 47 347 311 305 303 307 307 304 300 294 290 277 268 264 261 260 260 259 257 254 252
198 224 245 267 261 256 195 239 221 125 162 185 183 171 163 162 155 145 137 129 117 103 92 84 76 68 55 44 28 5 339 316 310 308 303 299 296 296 297 290 279 274 272 268 264 261 259 257 255
177 206 257 268 284 273 245 254 254 155 176 179 178 174 173 169 163 154 145 137 124 107 88 74 65 55 40 25 7 354 340 323 313 308 302 298 296 297 296 292 287 282 278 274 271 265 264 262 260
253 157 165 209 245 255 254 246 226 184 179 173 176 179 173 168 165 158 149 136 119 100 86 69 53 40 23 7 355 334 326 321 313 307 305 302 301 299 296 293 290 287 283 279 275 271 269 269 266
164 181 201 203 252 258 266 250 161 190 176 175 176 175 172 169 165 160 149 134 118 101 81 57 38 21 6 352 337 327 324 320 313 307 305 304 302 300 297 295 292 290 287 285 280 275 274 272 272
217 207 194 217 224 231 266 271 108 181 175 176 170 166 166 163 157 151 143 137 125 96 59 30 12 359 349 339 328 324 320 317 312 310 308 306 302 300 298 295 292 290 288 286 282 280 278 276 275
Height
1549 1551 1553 1556 1555 1553 1552 1550 1550 1550 1550 1552 1553 1553 1551 1551 1552 1556 1553 1550 1551 1551 1552 1553 1555 1557 1559 1561 1562 1563 1564 1565 1566 1567 1567 1567 1567 1567 1567 1567 1567 1566 1565 1565 1564 1564 1563 1563 1562
1550 1551 1555 1555 1552 1555 1553 1549 1550 1550 1552 1553 1553 1553 1552 1550 1552 1552 1551 1550 1551 1551 1552 1553 1555 1557 1559 1560 1562 1563 1564 1565 1566 1567 1567 1568 1568 1568 1568 1568 1567 1567 1566 1566 1565 1565 1564 1564 1563
1550 1552 1555 1551 1551 1552 1551 1549 1549 1551 1552 1553 1552 1552 1551 1550 1551 1551 1550 1550 1550 1551 1552 1553 1554 1556 1558 1560 1562 1563 1564 1565 1567 1567 1568 1568 1568 1568 1568 1568 1568 1567 1567 1566 1566 1565 1565 1565 1564
1552 1554 1554 1550 1551 1550 1549 1548 1551 1550 1551 1552 1551 1550 1550 1550 1550 1549 1549 1549 1550 1550 1551 1552 1554 1556 1558 1560 1561 1563 1564 1565 1567 1567 1568 1568 1569 1569 1569 1568 1568 1568 1567 1567 1567 1566 1566 1565 1565
1552 1552 1550 1551 1551 1549 1549 1551 1551 1549 1549 1550 1550 1548 1548 1548 1548 1548 1548 1548 1549 1550 1551 1552 1553 1555 1557 1559 1561 1562 1564 1565 1567 1568 1568 1569 1569 1569 1569 1569 1569 1568 1568 1568 1567 1567 1566 1566 1566
1553 1550 1550 1551 1549 1549 1549 1550 1551 1549 1548 1549 1549 1547 1546 1546 1546 1546 1546 1547 1548 1549 1550 1551 1552 1554 1557 1559 1560 1562 1564 1565 1566 1567 1568 1569 1569 1569 1569 1569 1569 1569 1569 1568 1568 1567 1567 1567 1566
1553 1549 1550 1550 1550 1548 1548 1550 1549 1547 1547 1547 1547 1546 1544 1544 1544 1544 1545 1545 1546 1547 1548 1550 1551 1553 1555 1558 1560 1561 1563 1564 1566 1567 1568 1569 1569 1570 1570 1569 1569 1569 1569 1569 1568 1568 1568 1567 1567
1552 1551 1550 1550 1550 1548 1548 1549 1548 1548 1546 1546 1546 1543 1542 1543 1542 1542 1542 1543 1543 1545 1546 1548 1550 1552 1554 1557 1559 1561 1562 1564 1565 1567 1568 1568 1569 1570 1570 1570 1569 1569 1569 1569 1568 1568 1568 1567 1567
1551 1552 1550 1548 1549 1546 1547 1547 1547 1546 1545 1544 1543 1542 1541 1540 1539 1539 1539 1540 1540 1542 1543 1545 1548 1550 1553 1555 1557 1560 1561 1563 1564 1566 1567 1568 1569 1569 1570 1570 1569 1569 1569 1569 1568 1568 1567 1567 1566
1551 1550 1547 1546 1546 1545 1546 1546 1545 1544 1541 1540 1539 1539 1537 1536 1536 1535 1535 1536 1537 1539 1540 1542 1545 1548 1551 1553 1556 1558 1560 1561 1563 1565 1566 1567 1568 1569 1569 1568 1568 1568 1568 1568 1568 1567 1567 1566 1566
1550 1547 1546 1547 1547 1546 1545 1544 1544 1542 1537 1537 1537 1536 1534 1532 1531 1531 1531 1532 1534 1535 1537 1540 1542 1545 1548 1551 1553 1556 1557 1559 1561 1563 1564 1565 1566 1566 1567 1567 1567 1567 1567 1567 1567 1566 1566 1565 1565
1549 1546 1547 1546 1546 1545 1544 1542 1541 1539 1537 1536 1534 1532 1530 1528 1527 1527 1527 1528 1530 1531 1534 1537 1540 1542 1545 1548 1551 1553 1555 1556 1558 1560 1561 1562 1563 1564 1565 1565 1566 1566 1566 1566 1565 1565 1564 1563 1562
1547 1545 1546 1545 1544 1543 1542 1540 1539 1536 1535 1533 1530 1528 1526 1525 1523 1522 1522 1523 1525 1527 1530 1533 1536 1539 1542 1545 1548 1550 1552 1554 1556 1557 1558 1560 1561 1562 1562 1563 1563 1563 1563 1563 1562 1562 1561 1560 1559
1546 1545 1544 1542 1541 1540 1539 1537 1537 1533 1533 1531 1529 1527 1524 1521 1519 1518 1518 1519 1521 1524 1527 1530 1533 1536 1539 1542 1545 1547 1549 1551 1553 1554 1555 1557 1558 1559 1559 1560 1560 1560 1560 1560 1559 1559 1558 1556 1555
1546 1544 1539 1538 1539 1538 1539 1533 1533 1533 1532 1530 1528 1526 1523 1520 1517 1515 1515 1516 1518 1521 1524 1527 1530 1533 1536 1539 1542 1544 1546 1548 1549 1551 1552 1553 1555 1555 1556 1556 1556 1556 1556 1555 1555 1554 1553 1552 1550
1544 1541 1536 1536 1537 1537 1538 1530 1531 1532 1531 1529 1528 1525 1523 1520 1517 1515 1514 1515 1517 1519 1522 1525 1527 1530 1533 1535 1538 1540 1542 1544 1546 1547 1548 1549 1551 1552 1552 1552 1552 1552 1551 1551 1550 1549 1548 1546 1545
1540 1536 1535 1534 1536 1535 1534 1529 1529 1531 1530 1529 1528 1526 1524 1521 1518 1516 1515 1515 1517 1519 1521 1523 1525 1528 1530 1532 1535 1537 1538 1540 1541 1543 1544 1545 1546 1547 1547 1547 1547 1547 1546 1545 1544 1543 1542 1540 1539
1536 1535 1535 1533 1533 1535 1532 1528 1527 1529 1529 1528 1528 1527 1525 1522 1520 1518 1517 1517 1518 1519 1521 1523 1524 1526 1528 1530 1531 1533 1535 1536 1537 1538 1539 1540 1541 1541 1541 1541 1541 1541 1539 1538 1538 1537 1536 1534 1532
1537 1537 1535 1532 1534 1534 1529 1527 1526 1528 1528 1528 1528 1527 1526 1525 1523 1521 1520 1520 1520 1521 1522 1523 1524 1525 1526 1528 1529 1530 1532 1533 1534 1534 1535 1535 1535 1535 1535 1535 1535 1534 1533 1532 1531 1530 1528 1527 1526
1539 1537 1533 1531 1535 1534 1528 1526 1524 1526 1527 1528 1528 1528 1528 1527 1526 1524 1524 1523 1523 1523 1524 1524 1525 1525 1526 1527 1528 1529 1530 1531 1531 1531 1531 1531 1531 1530 1530 1529 1528 1528 1526 1525 1524 1523 1521 1520 1519
1536 1534 1530 1531 1531 1533 1531 1522 1523 1525 1528 1529 1529 1529 1529 1528 1528 1527 1526 1526 1526 1526 1526 1526 1526 1527 1527 1528 1528 1529 1529 1529 1529 1529 1528 1527 1527 1526 1525 1524 1523 1521 1520 1518 1517 1516 1514 1512 1512
1531 1530 1532 1534 1531 1524 1529 1520 1519 1521 1525 1527 1528 1529 1529 1529 1529 1528 1528 1528 1528 1528 1528 1528 1528 1528 1528 1528 1528 1528 1528 1528 1527 1526 1525 1524 1523 1521 1520 1519 1517 1516 1514 1512 1511 1510 1507 1505 1503
1528 1532 1534 1533 1531 1528 1526 1522 1511 1519 1520 1522 1526 1528 1529 1530 1530 1529 1529 1529 1529 1529 1529 1530 1529 1529 1529 1529 1528 1528 1527 1527 1525 1524 1522 1521 1519 1517 1515 1514 1512 1510 1508 1506 1504 1503 1500 1498 1495
1532 1533 1535 1534 1530 1526 1520 1520 1509 1512 1512 1517 1523 1527 1528 1529 1530 1530 1530 1530 1530 1531 1531 1530 1530 1530 1529 1528 1528 1527 1526 1524 1523 1521 1519 1517 1515 1513 1511 1509 1507 1504 1502 1500 1498 1495 1493 1490 1488
1530 1528 1527 1525 1523 1517 1523 1522 1507 1506 1509 1513 1519 1524 1527 1528 1529 1529 1530 1530 1531 1531 1531 1531 1530 1529 1529 1527 1526 1525 1523 1522 1520 1517 1515 1513 1511 1509 1506 1504 1501 1499 1496 1493 1491 1488 1485 1483 1479
1524 1523 1523 1522 1517 1514 1523 1517 1503 1509 1513 1515 1518 1522 1525 1526 1528 1528 1529 1530 1530 1530 1530 1530 1529 1528 1527 1526 1524 1522 1520 1518 1516 1514 1511 1509 1506 1503 1501 1498 1495 1492 1489 1486 1483 1479 1476 1474 1470
1522 1521 1520 1520 1524 1520 1509 1507 1504 1509 1511 1514 1516 1520 1522 1524 1526 1527 1528 1528 1529 1529 1529 1528 1527 1526 1525 1523 1521 1519 1517 1515 1512 1510 1507 1504 1501 1498 1495 1492 1488 1485 1482 1478 1475 1470 1467 1464 1461
1520 1518 1523 1521 1521 1517 1508 1505 1499 1503 1506 1510 1513 1516 1519 1522 1524 1525 1526 1527 1527 1527 1527 1526 1525 1524 1522 1520 1518 1515 1513 1510 1508 1505 1502 1499 1495 1492 1488 1485 1481 1477 1474 1470 1466 1461 1458 1455 1451
1521 1522 1517 1516 1517 1515 1512 1501 1497 1498 1502 1506 1509 1513 1516 1519 1521 1523 1524 1524 1525 1525 1524 1523 1522 1520 1518 1516 1514 1511 1508 1506 1503 1499 1496 1493 1489 1485 1481 1477 1473 1469 1465 1461 1457 1452 1449 1444 1441
1512 1511 1512 1515 1514 1515 1510 1503 1499 1500 1502 1505 1508 1512 1514 1517 1519 1520 1521 1522 1522 1522 1521 1520 1519 1517 1515 1512 1510 1507 1504 1501 1497 1494 1490 1486 1482 1478 1474 1469 1464 1460 1455 1451 1447 1442 1439 1435 1431